Theta_e
346 345 346 346 344 344 343 342 341 340 340 340 340 339 337 337 335 336 336 336 337 336 336 335 335 335 335 336 337 337 338 338 338 338 338 337 338 338 338 337 336 337 337 337 337 335 333 332 332 332 332 331 329 327 327 328 329 329 330 332 333 334 335 336 337 337 337 337 338 338 338 340 340 341 342 342 341 340 340 342 345 348 349 349 350
345 346 347 346 345 345 344 343 341 340 340 341 340 339 337 336 335 336 336 336 336 336 335 335 334 334 335 336 337 337 338 338 338 337 337 337 336 337 337 337 336 337 337 336 335 334 333 332 332 332 332 330 328 327 327 327 327 328 328 328 329 330 332 334 335 335 337 337 337 338 339 340 341 341 341 342 342 341 341 342 346 348 348 348 349
346 346 347 345 344 344 343 343 340 340 340 339 338 337 336 334 334 335 334 333 333 333 332 333 333 334 335 335 336 336 337 338 337 337 337 336 336 337 337 337 337 336 336 336 335 334 332 331 332 332 331 329 328 326 327 327 326 326 326 326 327 328 329 330 332 333 335 336 337 338 339 339 340 341 341 342 341 342 343 342 344 346 347 348 349
346 346 346 346 344 343 342 341 339 339 339 337 337 335 334 333 332 332 331 330 330 330 330 331 332 332 333 334 334 335 337 338 337 337 337 336 335 337 337 336 337 337 335 335 334 333 332 331 331 331 330 329 328 327 326 327 326 325 325 325 326 326 327 327 329 332 334 335 336 337 338 338 339 340 341 341 341 341 342 343 344 347 348 348 349
346 348 347 346 345 343 341 340 339 339 338 337 335 333 332 331 331 329 328 329 330 331 331 330 329 330 331 332 332 333 336 338 338 337 336 336 336 336 335 334 335 335 335 334 333 332 331 331 331 330 329 328 328 327 327 327 326 326 325 325 325 325 325 325 326 328 331 334 335 336 337 338 338 339 340 342 342 342 342 343 345 348 349 349 349
343 347 347 345 343 342 341 339 339 338 337 337 335 333 332 332 331 330 331 332 332 331 330 329 329 329 330 331 331 332 335 337 337 337 336 337 336 332 330 332 334 333 333 334 333 331 331 331 330 330 329 328 328 328 327 327 326 326 325 325 325 325 325 324 324 325 328 332 334 336 337 338 339 340 341 341 342 343 344 344 346 348 349 348 349
339 342 343 342 341 341 340 340 339 338 337 336 335 334 334 333 333 333 334 333 332 331 331 329 329 330 330 331 331 332 333 333 334 337 337 337 335 332 331 334 334 333 333 332 332 331 330 330 330 329 329 328 327 327 327 326 326 326 326 325 325 325 325 324 324 324 326 329 333 335 337 337 338 339 340 341 340 341 344 346 346 346 346 346 347
337 338 338 337 338 338 337 338 337 337 336 336 335 335 335 334 334 334 334 334 333 332 331 330 329 330 331 331 330 331 332 332 334 336 336 336 335 334 333 333 332 332 332 332 331 331 331 330 330 329 328 328 326 325 326 327 326 326 326 326 325 325 325 324 324 324 325 328 332 335 335 337 338 338 339 340 340 342 345 345 344 344 344 345 347
337 338 337 336 336 335 336 336 337 337 336 336 335 335 335 335 335 335 335 334 333 331 330 330 331 331 331 331 331 331 331 333 334 336 335 335 334 332 332 331 331 331 331 332 331 331 331 331 330 329 329 329 327 326 327 328 327 327 327 327 326 325 325 324 324 324 325 327 331 333 335 336 337 338 338 340 341 343 343 344 344 343 344 346 349
338 340 339 337 336 335 336 336 336 337 336 335 335 336 336 336 335 335 335 334 333 331 330 330 332 332 331 331 331 331 332 333 335 334 333 333 331 329 329 329 330 331 331 331 330 330 330 330 329 329 329 330 329 329 329 328 328 328 328 327 327 326 325 324 324 324 325 327 330 332 334 336 337 337 338 339 340 342 343 343 344 344 344 346 347
340 341 340 339 338 338 337 337 337 337 336 335 336 336 336 336 336 335 335 334 333 331 331 331 332 331 331 331 331 332 332 333 334 333 332 332 330 328 328 329 330 331 331 330 330 329 330 329 329 330 330 330 330 330 329 329 329 328 328 327 326 325 325 325 324 324 325 326 328 331 333 335 336 337 338 338 339 341 342 343 344 345 345 344 344
343 342 341 339 339 338 338 339 338 337 336 337 336 336 336 336 336 335 335 333 332 331 330 331 331 331 331 331 331 331 332 332 331 331 331 331 329 328 327 328 330 330 331 331 330 331 330 329 329 330 330 330 331 330 329 329 329 327 326 325 325 325 324 325 325 325 324 325 327 329 331 333 334 336 337 338 338 340 342 343 343 344 345 344 344
345 344 342 340 339 339 339 339 338 338 338 337 337 337 337 337 336 335 335 333 332 330 330 330 331 331 330 330 330 329 329 330 330 330 330 329 328 328 327 327 329 330 331 331 330 332 332 331 331 331 330 331 331 331 330 329 328 327 325 323 324 324 324 324 324 324 325 325 326 328 329 331 333 334 336 337 338 339 342 344 344 344 344 345 345
346 345 343 342 340 339 338 338 338 337 337 337 337 337 337 337 337 336 334 333 331 330 330 331 331 330 330 329 328 328 328 329 329 329 329 328 328 327 327 327 329 330 330 330 330 331 331 330 331 331 330 330 331 331 330 329 329 328 325 323 324 323 323 323 324 325 325 325 326 327 328 329 331 333 335 336 337 338 340 343 344 343 342 343 344
346 346 345 343 340 339 339 339 338 337 338 337 337 338 338 338 337 336 335 333 331 331 330 331 331 330 330 329 328 329 329 329 328 328 329 329 328 327 326 327 329 330 331 332 331 329 328 328 329 330 330 331 331 331 331 330 330 328 325 323 323 323 323 324 324 325 325 325 325 326 326 326 327 328 331 334 337 337 338 341 342 342 342 343 343
346 346 346 344 341 339 340 339 338 338 338 337 338 339 338 338 337 336 335 333 332 331 331 331 331 329 329 328 328 329 329 329 328 327 327 328 328 327 327 329 331 331 332 331 329 327 327 328 329 330 330 331 330 330 330 331 329 326 323 322 322 322 323 324 325 325 325 325 325 325 325 326 327 327 327 330 333 335 337 340 341 340 341 342 341
346 346 346 344 342 340 339 339 338 338 338 338 338 339 339 338 337 336 334 333 332 331 331 331 331 329 329 329 329 328 328 329 328 327 327 328 327 327 328 330 332 331 331 331 329 328 329 329 329 329 329 330 330 330 331 330 327 323 322 322 322 323 324 324 324 325 324 324 325 325 326 327 328 329 329 328 330 333 336 339 340 339 340 342 341
345 345 345 343 341 341 339 339 338 338 338 339 339 339 339 338 337 336 334 333 332 330 330 330 330 329 329 329 329 328 328 329 329 327 326 327 328 327 328 330 331 331 331 331 330 329 328 327 327 327 328 328 330 331 331 327 324 322 322 323 323 324 324 324 324 324 324 325 325 326 327 328 330 332 331 329 330 332 335 338 339 338 339 342 343
345 345 344 342 341 340 339 339 339 339 339 339 339 338 338 337 336 335 334 332 331 330 330 329 329 328 328 329 329 329 329 329 329 328 327 327 328 327 326 328 329 330 330 330 329 328 326 326 326 326 326 328 329 330 327 324 323 323 323 323 324 324 325 325 325 325 325 326 326 326 327 327 330 334 334 331 330 332 334 337 338 339 340 341 342
346 345 344 342 340 339 339 339 339 338 339 339 338 337 337 336 335 333 333 333 332 331 330 329 329 329 328 328 328 330 331 331 329 327 327 328 329 328 327 327 328 328 328 328 327 325 324 326 326 325 326 328 328 326 323 323 324 324 323 324 325 325 326 326 325 326 326 326 326 326 327 327 328 332 335 334 332 332 335 337 337 339 339 340 341
345 345 344 342 341 340 339 338 339 339 339 338 338 337 336 335 334 334 333 332 332 331 331 330 329 329 329 328 328 330 331 329 326 326 327 329 330 329 327 325 325 326 325 324 323 323 325 326 325 325 327 327 325 324 324 325 326 325 324 325 326 326 326 326 326 326 326 326 326 326 327 327 327 329 333 336 335 334 335 336 337 339 339 340 341
345 344 344 342 340 340 339 338 339 339 339 339 338 336 336 335 335 334 333 333 333 332 332 331 330 330 329 328 328 330 330 328 326 327 328 330 330 327 323 321 321 322 321 320 322 323 324 324 325 326 326 325 323 324 327 327 326 325 325 326 326 326 326 326 326 326 326 326 326 326 327 327 327 327 329 333 336 337 336 336 337 338 339 339 340
344 344 344 342 341 341 340 339 340 340 339 339 338 336 336 336 335 334 335 335 335 333 333 332 331 330 329 327 328 330 330 328 327 329 330 330 328 323 320 320 321 321 320 320 321 322 322 324 326 326 324 322 323 326 327 327 326 325 325 326 326 326 326 326 326 326 326 326 326 326 326 327 327 327 327 329 333 336 338 338 338 337 338 338 339
345 345 344 343 343 342 341 340 340 340 340 339 338 338 337 336 336 336 337 336 334 333 332 333 331 329 328 327 328 330 331 329 328 328 329 327 324 321 321 321 321 321 321 322 323 323 324 325 325 323 322 323 324 326 327 327 326 324 324 325 325 325 325 325 326 326 326 326 325 325 326 326 326 326 327 328 331 334 337 339 339 338 338 338 338
346 346 344 344 343 343 343 342 340 339 339 338 337 337 337 337 337 337 337 335 334 332 331 331 330 329 329 328 329 330 330 328 328 328 327 324 322 321 320 320 321 322 323 324 324 324 325 324 322 321 323 325 325 326 326 326 324 323 323 323 323 323 323 323 324 324 325 325 325 325 325 326 326 325 325 326 330 333 336 339 340 340 339 338 338
345 344 343 344 344 344 343 340 338 339 337 336 336 337 338 337 337 336 335 333 333 332 330 329 329 329 330 330 329 329 328 327 328 328 325 322 320 319 318 320 322 323 323 323 324 323 322 321 322 323 325 327 326 326 326 325 324 322 322 322 321 320 320 320 322 323 324 324 324 325 325 325 325 324 323 324 326 330 335 339 340 340 340 340 339
344 344 345 346 345 343 341 338 336 335 334 333 334 335 335 335 335 334 333 331 331 331 331 329 329 330 331 329 328 328 327 326 326 325 322 319 319 318 318 320 321 322 321 321 322 322 321 322 324 324 324 326 327 326 326 326 324 322 321 321 319 318 318 318 319 321 322 323 324 324 324 325 325 323 322 323 323 324 330 338 342 340 339 340 341
342 345 346 346 344 341 340 337 336 334 332 332 333 332 332 333 334 332 330 330 330 329 329 330 330 330 330 328 326 327 327 325 323 321 320 319 319 318 318 319 320 320 320 319 320 321 322 323 325 324 323 325 326 325 325 325 323 321 320 319 318 317 317 317 318 319 320 321 323 323 324 324 324 324 323 323 322 322 324 331 339 341 339 339 341
339 342 343 343 342 340 338 335 333 334 333 333 332 330 330 332 333 331 329 329 329 328 330 331 331 329 328 327 327 327 326 323 320 319 319 318 317 316 317 318 319 319 318 318 319 321 323 325 325 324 323 323 323 323 322 322 320 319 319 318 317 317 317 316 317 318 319 320 322 322 323 323 323 323 324 324 324 322 322 323 329 337 340 340 340
338 338 340 339 337 337 336 334 333 334 333 332 331 329 327 327 329 328 326 325 326 326 327 328 326 325 325 325 324 324 322 320 319 318 318 317 316 316 317 318 318 318 318 319 320 322 324 325 324 322 322 321 321 320 320 320 319 318 318 317 316 316 316 316 316 317 318 319 320 321 322 323 323 322 323 324 324 324 323 321 322 326 331 334 336
337 337 336 334 334 335 335 334 333 332 332 334 334 331 326 324 325 326 324 323 322 322 322 322 321 321 323 323 321 321 319 319 318 317 316 316 316 317 318 318 318 318 319 320 322 323 324 323 321 321 320 319 319 319 319 318 318 317 317 316 316 315 315 315 316 317 318 318 319 320 321 322 323 322 322 324 325 324 324 323 321 321 323 325 326
334 334 333 332 333 334 334 335 333 332 333 333 332 330 328 325 324 325 324 321 321 321 320 320 319 320 320 321 320 318 318 317 317 316 316 316 317 318 318 318 318 318 319 321 322 322 322 320 319 319 318 317 317 317 316 316 316 316 315 315 315 314 313 313 314 316 317 317 318 319 320 321 322 322 321 322 324 325 324 323 322 321 321 322 322
332 331 330 331 332 333 334 335 334 333 332 330 328 329 329 327 325 325 322 319 319 319 319 319 319 319 319 318 318 317 316 316 315 315 316 316 317 318 319 318 318 318 319 320 320 320 319 318 317 317 316 315 315 314 314 314 314 314 314 314 313 312 311 312 312 313 315 315 315 317 318 319 319 321 321 321 323 325 325 325 323 322 322 322 322
332 331 331 332 332 333 333 333 332 332 331 329 329 329 328 327 327 326 322 319 318 318 317 318 318 318 317 316 316 315 315 315 314 314 315 316 316 317 318 319 320 319 319 319 318 317 317 316 315 314 314 313 312 312 311 311 311 311 311 311 311 309 309 310 310 311 313 313 313 315 317 317 318 319 320 321 321 322 324 325 325 324 322 321 322
333 332 331 330 331 332 332 331 331 331 331 331 330 328 327 326 327 327 325 324 322 320 318 317 316 316 315 315 314 314 314 314 313 313 314 315 316 316 318 319 320 319 318 317 316 316 315 315 314 312 311 311 310 309 309 308 309 309 309 309 308 307 306 307 308 309 311 312 311 312 314 315 316 317 318 320 320 321 322 323 325 325 324 323 321
332 330 330 331 331 332 333 332 331 331 330 330 329 327 327 327 326 327 327 326 326 324 321 318 316 315 314 314 314 314 314 313 313 313 314 314 315 316 317 317 317 317 316 315 315 314 314 313 312 311 310 309 308 308 307 306 306 307 307 308 307 306 305 305 306 307 308 310 309 310 311 313 314 315 316 317 318 319 320 322 323 324 325 324 323
331 331 332 332 331 331 332 332 330 329 329 328 326 326 326 326 326 326 325 325 325 325 322 319 317 315 315 315 315 315 315 314 313 314 313 313 314 315 315 314 314 314 313 313 313 313 312 311 311 311 310 309 308 308 307 306 305 305 305 306 306 305 304 304 304 305 306 307 308 308 309 310 312 313 315 316 316 316 318 320 322 323 323 324 325
332 332 332 330 329 328 329 330 329 328 327 326 325 325 325 325 325 324 324 324 324 323 321 320 318 317 316 315 314 315 315 315 315 315 315 313 313 313 313 312 312 311 310 310 311 310 310 309 309 309 309 308 307 307 306 305 305 304 303 303 304 304 303 302 303 303 304 305 306 307 307 308 309 310 312 314 315 315 315 318 320 321 321 321 322
331 331 329 327 327 327 327 328 328 327 326 325 324 324 324 324 323 323 323 322 321 320 318 317 316 315 314 312 312 313 314 314 315 315 314 312 312 312 312 311 311 310 310 309 309 309 308 307 307 307 306 306 306 305 304 304 304 303 302 302 302 302 302 301 301 302 303 304 304 305 306 307 308 308 309 312 314 314 314 315 316 318 319 319 318
329 329 328 326 326 327 326 327 326 326 325 325 324 324 323 323 322 322 321 321 320 319 317 315 313 311 310 310 311 312 312 313 313 313 311 311 311 310 310 310 310 309 309 309 308 308 307 306 305 305 304 304 304 303 303 302 302 301 301 300 300 300 301 300 300 300 301 302 303 304 305 306 307 308 308 309 311 313 313 313 314 315 316 316 316
329 329 327 326 325 325 326 326 325 324 324 324 324 323 322 322 321 320 320 320 319 318 317 314 311 309 308 309 310 310 311 312 312 311 310 310 309 308 308 308 308 308 308 307 307 307 306 305 304 303 303 303 303 302 302 301 300 299 300 299 298 298 299 300 299 299 300 301 302 303 304 305 306 307 307 308 309 311 312 312 312 312 313 314 313
328 327 327 326 325 325 325 324 323 323 323 323 322 321 321 321 320 319 319 319 319 317 315 313 310 309 308 308 309 310 310 311 310 309 309 308 307 307 307 306 306 306 305 305 305 305 304 304 303 303 303 302 301 301 301 299 298 297 297 297 297 296 297 298 299 299 299 301 302 302 302 303 304 305 306 307 308 309 310 311 311 311 311 311 311
326 326 326 325 324 324 323 323 322 322 321 321 321 321 320 320 320 320 319 318 317 316 315 312 310 308 308 307 307 308 309 310 309 308 308 307 306 306 306 305 305 304 303 303 303 302 303 304 303 302 302 301 300 300 299 297 296 295 295 295 296 294 294 295 297 298 299 300 301 302 302 302 303 303 304 305 307 307 308 309 309 309 309 310 310
325 325 324 324 323 323 322 322 321 321 320 320 320 320 320 319 319 317 316 315 314 314 314 312 310 308 308 307 307 308 308 308 308 307 307 306 306 305 305 304 304 303 303 302 302 302 302 303 302 302 301 300 299 299 298 296 295 293 292 292 293 291 290 292 296 297 298 299 301 301 301 302 302 302 302 303 304 305 306 307 308 309 308 309 309
323 323 322 322 322 321 321 321 320 318 318 318 317 316 316 316 315 314 314 313 313 312 312 312 311 310 309 309 308 308 308 307 307 306 306 305 305 305 304 304 303 304 304 303 302 302 301 301 301 301 300 299 298 298 296 295 294 291 288 288 288 287 287 290 295 296 297 299 300 300 301 302 302 301 302 302 302 303 304 305 306 307 307 307 308
322 321 321 321 320 320 320 320 318 316 316 316 315 314 314 314 314 313 313 313 313 312 312 312 311 310 309 309 308 307 307 306 306 306 305 305 305 304 304 304 303 303 303 302 302 301 301 300 300 300 299 299 298 296 295 294 293 290 287 286 286 286 287 290 294 296 297 299 300 300 300 302 302 300 301 302 302 302 303 303 304 304 305 305 306
321 320 319 319 319 318 318 318 316 315 315 315 315 314 314 313 314 313 313 312 312 311 311 311 310 309 309 308 307 307 306 306 306 305 305 304 304 304 304 304 304 303 302 301 300 300 300 300 299 299 299 298 297 295 294 293 291 288 286 286 286 287 287 290 294 296 297 299 300 300 300 302 302 300 299 301 302 301 302 303 303 303 303 304 304
317 317 316 317 316 316 316 316 315 314 313 313 313 313 312 312 312 312 312 311 310 310 309 310 309 309 308 308 307 307 306 306 306 305 305 304 304 304 304 303 303 302 301 301 299 299 298 298 298 298 298 298 297 295 293 291 289 287 286 286 286 287 288 290 294 296 297 298 299 300 300 302 302 300 298 299 301 302 301 302 302 302 302 302 303
316 315 315 315 315 314 315 315 314 314 313 313 313 313 312 312 311 311 311 310 309 309 309 309 309 308 308 307 307 307 306 306 306 305 305 305 304 304 303 302 301 301 301 300 299 298 298 297 297 297 298 298 296 294 292 290 287 286 286 286 286 286 288 290 294 296 297 298 299 300 300 301 301 300 298 298 300 301 301 301 302 301 301 301 302
315 315 315 315 314 314 314 314 315 314 313 312 313 312 311 310 310 309 309 309 309 309 308 308 308 307 307 307 306 306 305 305 305 305 305 304 304 303 302 301 301 301 300 299 299 298 298 297 297 297 297 297 296 294 292 290 288 286 286 286 286 286 288 291 294 296 296 298 299 299 299 300 300 299 298 298 299 299 300 300 301 301 301 301 301
313 313 313 313 313 313 313 313 312 312 312 311 310 310 310 309 309 308 308 308 308 308 308 307 307 307 307 306 306 305 305 305 304 304 304 303 303 303 302 301 300 300 300 299 299 298 298 297 297 296 297 297 295 293 292 290 289 288 287 286 286 286 288 291 294 296 296 297 298 299 299 299 298 298 297 298 299 298 298 299 300 300 299 300 301
Wind_Speed
16 14 13 12 10 9 9 8 8 8 8 7 7 7 7 9 11 10 11 10 9 9 10 11 12 13 13 13 14 13 13 12 11 11 11 10 10 11 11 11 11 12 12 12 11 11 11 12 13 13 13 14 16 18 19 20 20 21 22 22 23 23 23 24 16 16 27 30 27 28 29 27 25 25 25 27 29 31 32 34 37 37 34 33 35
17 15 14 12 11 11 9 9 9 9 8 7 8 8 10 12 13 13 14 12 10 9 10 11 12 13 14 14 14 15 15 14 13 12 11 11 11 12 12 11 12 12 12 13 12 11 10 11 13 12 12 13 16 18 18 18 20 22 23 23 24 25 24 25 23 17 21 29 28 27 28 27 28 29 27 27 29 30 30 31 33 35 36 36 35
18 16 15 13 12 11 10 9 9 9 9 9 9 9 10 13 14 13 12 11 9 10 12 13 14 14 13 13 14 15 15 15 14 13 12 12 13 14 14 14 13 12 12 13 13 12 11 12 12 12 11 12 15 16 16 17 18 21 24 24 25 27 26 26 26 22 22 28 28 25 26 26 28 30 30 30 30 29 28 30 32 32 34 37 37
22 19 16 14 12 10 10 9 9 10 10 9 9 9 10 11 10 8 8 10 12 14 15 14 14 14 12 11 12 14 16 15 15 14 14 14 14 14 15 17 16 14 13 13 13 13 13 13 12 12 11 12 14 15 14 15 17 19 22 24 25 27 27 25 26 26 25 27 27 25 25 26 28 30 31 31 32 31 29 29 31 32 33 36 37
21 21 16 14 12 11 11 10 10 10 10 9 9 9 9 9 9 11 12 12 13 14 14 12 12 13 12 11 12 15 16 15 15 16 16 15 14 14 16 18 18 17 16 15 14 14 14 14 13 11 11 12 13 14 14 14 16 18 20 23 24 25 26 25 25 27 28 27 27 26 26 26 27 30 30 29 29 29 30 31 31 32 33 35 36
20 21 17 15 14 13 12 12 11 11 10 9 9 9 9 9 10 12 12 12 12 12 13 13 14 15 14 12 12 14 15 15 16 17 16 15 14 15 16 17 18 18 18 16 15 15 15 15 14 12 11 11 12 14 15 15 16 17 19 22 24 25 27 27 25 26 28 28 28 27 25 25 26 28 30 29 28 26 26 28 28 28 29 31 33
16 18 15 14 15 15 13 13 12 10 10 9 9 9 9 8 9 11 12 12 12 13 14 14 15 15 14 13 13 15 15 15 15 15 15 15 14 14 16 17 18 19 18 18 17 16 16 15 15 13 11 11 13 15 17 17 16 18 20 22 25 26 28 29 26 25 26 27 26 25 23 23 25 27 29 29 29 27 23 21 21 24 27 29 32
12 13 13 12 13 14 13 12 12 11 10 9 8 8 8 8 9 10 11 12 12 13 14 14 15 16 16 16 16 16 16 15 15 15 14 13 13 13 15 17 18 19 18 18 17 17 17 17 15 14 12 12 16 19 19 18 18 21 23 23 24 26 28 29 27 25 24 24 23 22 22 22 23 26 27 26 25 25 24 22 21 24 26 29 32
15 13 13 12 12 13 13 12 12 11 11 10 10 10 9 9 10 10 11 12 12 13 13 14 15 16 16 17 17 16 15 15 16 15 13 12 12 13 15 15 17 18 18 18 17 17 18 18 16 15 15 17 21 21 19 19 20 22 25 25 25 26 29 29 26 24 24 22 21 20 20 20 21 22 23 24 24 24 25 24 24 25 25 26 30
19 16 15 15 14 14 14 14 13 12 11 11 11 10 10 10 10 11 11 12 13 13 14 14 14 15 15 16 16 15 15 15 15 15 13 12 12 13 15 16 17 17 18 18 18 17 18 19 18 18 18 20 21 19 19 21 22 23 24 25 26 28 31 31 27 25 23 21 20 19 17 17 19 21 22 24 26 26 25 23 23 25 23 19 22
20 18 17 17 16 16 16 15 14 13 13 12 12 11 11 11 11 11 12 13 13 13 14 13 12 13 14 15 16 15 14 14 15 16 14 13 13 14 15 16 16 17 17 17 17 18 20 22 21 19 19 20 19 19 21 23 24 24 25 26 27 29 31 31 30 28 24 21 21 20 17 17 21 22 23 25 26 26 25 25 24 22 19 14 13
21 19 18 18 18 18 17 17 16 15 14 13 13 12 12 12 12 12 13 13 13 13 13 12 13 14 14 14 14 14 15 15 16 17 16 14 13 14 15 15 16 17 16 16 18 20 22 25 23 21 20 20 20 21 22 23 23 25 27 29 30 29 27 28 29 30 28 25 23 22 20 21 23 24 24 24 26 27 26 26 26 23 20 18 16
20 20 19 19 20 19 18 17 16 16 15 14 14 13 13 13 13 13 13 13 13 13 13 13 13 13 13 14 14 15 15 14 14 15 14 13 12 13 14 15 16 16 16 17 19 20 22 23 23 23 22 21 21 21 21 22 23 27 30 32 33 31 29 28 27 28 30 28 25 24 24 23 24 26 25 23 24 26 25 25 26 26 23 21 22
21 20 20 20 20 19 18 17 16 16 15 15 14 14 14 14 14 13 14 13 13 13 13 12 12 13 14 14 14 14 13 12 12 13 12 12 11 12 14 15 15 15 17 18 19 21 22 22 23 24 23 22 22 22 22 22 24 28 31 33 33 32 32 32 31 30 29 28 25 26 28 27 27 28 28 26 26 27 26 24 25 27 27 27 28
21 20 20 20 20 20 19 18 17 16 15 15 15 15 15 15 14 14 15 14 13 13 12 11 12 14 15 14 13 12 11 12 13 13 12 13 13 12 13 14 15 15 16 18 20 22 23 23 23 22 22 21 22 22 22 22 24 27 29 31 31 32 33 33 32 31 31 30 30 31 32 31 31 32 31 29 28 29 30 26 23 26 27 24 24
20 20 21 21 21 20 19 18 17 16 16 16 16 16 16 16 15 16 16 16 15 14 13 12 13 14 15 13 11 10 11 13 14 13 12 12 13 13 13 13 13 15 17 19 21 22 21 21 20 20 20 20 21 21 21 21 23 25 26 28 30 32 34 34 32 32 32 33 35 36 36 35 35 36 36 35 32 30 30 27 22 21 19 14 15
20 21 21 21 21 20 20 19 18 18 17 17 17 18 17 17 16 17 17 17 16 15 14 13 12 13 13 11 8 9 11 12 12 13 12 10 11 12 12 12 13 16 18 20 20 20 19 18 19 19 19 20 20 20 19 20 23 22 22 25 29 32 33 34 34 35 36 36 36 36 36 36 35 35 35 37 37 32 27 24 20 18 17 12 9
21 21 22 22 21 21 21 20 20 20 19 19 19 18 18 18 18 17 17 17 16 14 13 13 13 13 13 10 8 9 10 11 12 13 12 9 9 11 12 12 14 16 17 19 19 18 18 19 19 18 18 18 18 18 19 22 22 19 18 22 27 29 31 34 38 41 41 39 36 35 35 35 33 32 31 33 39 37 30 26 23 20 18 15 11
22 22 23 22 21 21 22 22 22 21 21 21 19 18 18 18 17 17 18 18 16 14 14 16 17 15 12 10 9 9 9 10 13 14 12 9 9 11 11 11 13 15 16 17 18 19 19 19 18 17 17 17 18 19 21 21 17 14 16 20 24 26 30 35 39 42 42 40 39 38 37 36 33 30 28 30 36 39 36 31 28 24 21 18 14
22 21 21 21 21 22 22 23 24 23 22 21 20 20 19 17 16 17 18 16 16 16 17 18 18 14 11 10 10 8 7 10 13 14 12 9 9 11 11 11 12 14 15 17 18 20 19 18 17 18 18 19 20 21 20 16 12 13 16 19 21 25 30 35 37 37 37 37 38 37 35 35 35 29 23 26 32 37 38 35 31 29 25 21 17
22 21 20 20 21 22 23 24 24 23 22 20 19 19 19 18 17 17 16 16 15 16 16 16 14 12 10 11 11 9 9 13 15 14 12 10 9 11 13 13 13 14 16 19 19 19 18 18 19 19 18 20 22 20 16 12 11 14 16 19 22 25 29 33 35 35 34 34 35 35 34 34 35 32 22 19 27 34 37 36 34 31 28 25 21
17 20 21 22 22 23 23 23 23 22 21 21 20 19 18 17 16 15 14 15 15 15 16 14 11 9 9 11 13 12 13 14 13 11 10 9 8 11 13 14 13 13 16 19 19 18 18 19 20 19 20 23 23 17 12 11 12 14 17 19 22 24 26 29 32 33 33 34 33 34 35 34 33 33 30 20 17 27 34 36 35 33 31 29 27
13 17 21 22 23 23 22 22 22 22 22 21 21 19 17 16 16 15 11 9 11 14 16 12 8 7 9 11 13 13 12 12 9 7 6 6 8 11 14 15 14 12 14 17 18 20 20 19 19 20 23 24 20 13 10 11 14 16 18 18 20 23 25 27 30 31 32 33 32 32 34 35 34 32 32 29 20 19 28 32 34 34 34 33 31
14 15 17 19 20 21 21 19 18 18 20 21 20 19 17 15 13 11 8 9 12 14 13 9 7 9 11 12 12 11 8 7 6 4 3 4 8 12 14 15 14 11 12 15 18 20 20 19 20 23 23 21 15 12 12 12 14 17 17 17 19 23 25 26 28 29 30 30 31 31 32 34 35 35 34 31 25 19 24 27 29 32 33 34 34
13 13 15 16 16 16 16 16 17 19 21 21 19 17 14 11 9 10 11 12 12 12 12 12 12 12 10 10 12 9 6 5 5 3 1 5 8 11 13 13 12 11 12 15 16 17 18 19 21 21 20 17 13 11 11 10 13 17 18 17 19 22 24 26 27 28 28 28 29 31 32 34 35 36 36 34 24 15 23 26 27 28 30 31 33
11 12 13 13 13 12 13 17 19 20 19 19 17 16 14 10 10 15 17 15 11 11 16 19 17 14 11 10 11 7 4 4 4 4 1 6 9 11 13 12 10 11 12 13 14 15 16 19 19 18 17 15 10 9 9 9 13 18 18 19 21 22 24 25 25 26 27 28 29 30 32 34 35 35 38 40 34 18 15 26 27 26 27 28 28
9 9 10 11 12 12 14 17 18 15 14 15 12 10 11 11 10 13 17 16 11 12 17 20 17 13 10 11 11 7 6 7 5 3 4 10 12 12 13 13 12 12 13 13 16 17 17 17 16 15 14 10 6 7 9 9 12 17 18 20 23 24 24 24 24 26 28 28 29 30 31 33 35 37 39 39 41 37 16 15 26 26 26 26 25
6 8 10 11 13 13 13 14 13 9 10 11 11 10 12 13 13 14 15 14 13 15 19 19 16 14 12 13 13 9 8 10 4 2 8 11 12 12 13 13 12 13 15 17 18 17 16 16 14 12 11 8 6 8 9 8 12 16 17 20 23 25 26 27 28 29 29 29 28 30 31 32 33 36 38 37 39 45 37 14 13 25 25 18 14
6 8 9 12 15 16 15 13 10 10 13 14 11 12 13 11 11 12 13 14 16 19 19 15 13 12 10 9 7 4 6 5 1 6 8 10 11 12 12 11 12 13 14 16 17 16 16 15 12 10 11 10 10 10 11 11 13 15 16 18 22 24 27 28 27 28 29 28 28 29 30 31 32 34 35 36 37 42 43 34 16 5 17 17 13
6 9 10 12 14 12 10 10 10 12 14 13 11 11 9 6 4 5 8 10 12 12 11 9 8 7 4 6 4 3 3 1 3 6 7 8 9 10 9 8 10 12 13 14 15 14 13 11 9 10 11 11 10 11 12 13 14 16 16 18 20 22 25 26 26 27 28 28 29 30 29 29 31 33 33 32 35 39 40 38 34 24 9 6 8
7 9 10 12 11 7 4 7 11 14 13 9 8 9 7 2 2 0 3 5 5 4 4 3 1 1 5 6 4 3 3 1 3 5 6 7 7 6 4 5 8 10 12 14 14 11 9 8 9 11 11 10 11 12 12 13 15 16 16 18 18 19 22 24 24 24 26 28 29 30 31 30 30 32 33 31 32 36 37 35 36 34 26 20 19
7 9 11 12 11 9 6 6 9 11 8 4 4 5 4 3 2 6 8 7 5 3 2 0 3 4 5 5 4 3 3 3 4 5 6 6 6 4 2 4 8 10 12 13 11 10 10 11 10 10 11 10 11 12 12 13 14 15 16 17 18 18 20 22 22 21 22 26 28 28 30 31 30 31 32 32 30 31 32 33 32 30 26 24 26
7 9 10 11 12 11 9 7 7 5 2 1 3 5 5 4 5 9 10 8 5 3 0 2 3 4 5 4 2 3 4 6 7 7 6 6 6 4 2 3 6 9 11 11 10 10 12 11 10 11 11 11 11 12 12 13 14 15 16 16 17 18 19 19 20 20 21 24 26 26 27 30 30 30 31 32 31 29 30 30 27 24 23 22 23
6 8 9 10 11 10 10 10 7 3 1 1 3 6 8 9 11 11 9 7 4 2 3 4 5 5 5 5 5 5 5 7 8 8 7 6 5 6 6 5 3 4 9 11 10 10 11 10 11 11 11 11 12 12 13 13 13 14 16 16 17 19 19 19 19 21 21 22 25 26 26 27 29 29 29 30 31 29 28 27 25 22 22 23 22
6 7 9 9 9 8 9 9 7 4 3 3 4 5 7 11 13 12 9 7 5 5 5 5 6 7 8 9 9 9 8 9 11 10 7 6 6 7 8 7 3 5 9 12 12 11 10 9 9 10 10 11 12 12 12 13 13 13 15 16 17 19 20 20 20 20 19 20 22 24 24 26 27 28 27 27 29 28 26 25 25 24 24 23 23
6 7 6 6 5 5 6 7 7 6 5 4 5 3 2 6 8 8 7 6 5 6 8 7 7 9 11 10 9 9 8 9 12 12 9 9 10 11 11 11 10 9 10 11 11 9 9 8 8 9 9 10 11 11 12 12 13 13 14 14 16 19 20 20 21 21 19 18 20 23 24 24 26 27 26 26 26 27 26 25 25 25 25 23 21
6 5 4 5 5 5 5 5 5 6 6 5 4 2 1 4 5 7 9 9 6 7 10 9 7 7 7 6 5 5 3 3 5 8 10 11 12 12 12 11 10 10 9 9 9 8 7 8 8 8 8 9 10 10 11 11 13 14 15 14 15 18 19 19 20 21 19 18 19 22 23 24 24 24 24 24 25 26 26 25 25 26 27 26 23
5 4 3 3 5 5 5 4 5 6 5 3 2 1 1 2 2 2 4 5 7 10 11 9 7 7 5 2 1 1 2 4 4 0 5 10 10 10 10 9 9 9 8 7 7 6 6 7 8 8 8 9 9 10 10 11 12 14 15 14 14 16 19 20 21 21 19 18 19 21 22 23 24 24 22 21 23 25 26 25 25 26 26 27 24
5 3 3 3 4 4 4 4 5 5 3 2 3 5 5 5 7 7 7 8 9 10 8 7 6 5 3 2 2 2 2 4 4 0 5 9 8 7 8 7 6 6 6 6 6 7 7 8 8 8 8 9 9 10 10 11 11 13 14 14 14 15 18 19 20 21 20 19 19 21 22 22 23 24 23 21 21 24 26 26 26 25 24 25 25
2 1 0 2 3 3 3 5 5 5 5 5 6 7 6 5 5 6 7 8 8 7 7 8 7 4 2 2 0 1 3 5 3 5 7 6 6 6 6 5 4 4 4 3 4 6 7 7 8 8 8 9 9 10 10 11 11 12 13 14 14 15 15 16 18 20 19 19 20 21 22 22 22 23 24 24 21 20 22 23 24 24 23 24 25
2 3 2 2 2 3 4 4 4 5 6 6 6 6 6 4 5 6 7 7 7 7 7 8 6 3 2 0 2 4 5 5 4 5 5 4 5 6 4 3 4 5 5 4 4 5 6 7 7 7 8 9 9 10 10 11 12 12 12 13 14 14 14 14 16 19 18 18 20 21 21 22 21 21 22 23 22 19 19 20 22 23 23 23 25
0 2 2 2 2 2 3 5 5 5 6 6 6 6 6 4 5 7 7 7 7 8 8 9 7 5 3 3 4 4 5 4 3 3 3 4 7 7 4 2 3 4 5 5 4 4 5 5 6 7 8 9 9 10 11 11 12 12 12 12 13 14 14 13 15 17 18 17 18 20 21 21 21 20 20 21 21 20 19 19 20 21 21 22 24
2 2 3 3 3 3 5 6 7 7 7 6 6 6 6 6 6 6 6 4 3 7 10 10 8 6 5 5 5 4 3 2 1 2 2 4 5 5 2 1 2 3 4 4 4 4 4 4 5 6 7 8 9 10 10 11 12 12 12 12 12 13 14 14 13 16 18 17 17 18 20 20 20 20 20 20 20 19 19 19 20 20 20 20 20
3 4 4 4 4 5 6 7 7 7 6 6 5 4 4 5 4 2 2 2 1 2 7 11 12 9 7 6 5 3 2 1 1 1 1 2 2 1 1 1 0 0 1 3 3 4 4 4 4 5 6 7 8 9 10 11 12 12 12 12 12 13 14 14 13 15 17 16 15 17 19 19 19 20 20 20 20 19 19 19 19 19 20 20 19
3 3 3 3 4 6 6 6 7 7 5 4 3 2 2 3 2 1 2 2 2 3 3 7 10 10 9 7 5 3 2 2 2 2 2 3 2 2 3 3 3 2 2 2 3 3 3 4 4 4 5 6 7 8 9 11 11 12 12 12 12 14 15 13 12 13 15 14 13 15 17 17 17 18 19 19 19 19 19 19 19 18 18 19 19
3 3 3 4 4 4 4 6 8 7 5 3 3 1 2 4 4 3 3 3 4 5 5 5 6 6 6 6 5 3 2 3 4 4 4 3 3 5 6 6 4 3 3 2 3 3 3 4 5 5 5 6 7 8 10 10 10 11 13 13 12 13 14 12 11 12 13 13 13 15 16 16 16 17 17 17 17 17 18 18 18 18 18 18 18
3 2 3 3 3 3 3 4 4 3 2 3 3 3 6 7 7 6 5 5 5 6 6 5 5 5 5 5 4 4 5 6 7 7 6 5 4 5 5 4 4 4 4 2 2 3 4 4 4 5 5 5 6 7 9 9 9 10 12 12 12 13 13 12 12 12 12 12 14 14 15 15 15 16 17 17 17 17 17 18 17 17 18 18 18
4 3 3 3 3 4 4 3 2 3 4 5 6 6 7 8 7 7 6 6 6 6 7 7 6 5 6 6 5 6 8 8 7 8 9 8 6 5 2 2 3 4 4 3 3 3 3 4 4 4 4 5 6 7 7 8 9 10 11 11 11 11 11 11 11 12 12 12 14 14 14 14 14 15 16 17 17 16 17 17 17 16 17 17 18
5 5 5 6 7 8 8 8 8 8 8 9 10 11 9 7 7 7 7 6 6 7 9 9 7 5 6 6 5 5 6 5 4 5 7 7 6 5 3 3 3 3 4 4 4 4 4 4 4 5 4 5 7 7 6 7 9 10 11 11 9 9 9 9 9 11 12 12 14 15 14 13 13 14 16 17 17 16 16 17 17 16 16 16 17
7 6 6 8 9 9 10 12 13 14 12 10 9 10 9 7 7 7 7 6 7 8 8 7 5 5 6 6 5 4 5 5 4 4 5 6 6 6 5 4 4 4 4 4 4 4 4 4 5 5 5 5 7 7 5 7 9 8 9 10 10 8 7 7 8 10 11 13 14 15 13 12 12 13 15 16 17 17 17 17 17 16 15 15 16
6 6 6 7 8 7 5 5 6 7 7 6 6 6 6 6 7 7 7 7 7 7 6 6 6 6 6 6 6 5 5 5 5 5 5 6 6 6 6 5 5 5 5 5 4 4 5 4 4 4 4 6 7 7 5 8 9 6 7 9 10 8 6 6 8 9 11 12 14 14 12 11 12 12 13 15 16 16 17 17 17 16 15 15 15
Wind_Direction
189 189 191 193 195 201 208 214 222 226 226 232 239 245 254 258 260 260 258 261 268 279 288 292 295 298 298 299 299 300 299 296 294 292 293 294 294 295 295 298 301 301 305 307 307 311 313 316 321 325 332 335 336 336 334 331 328 322 319 314 304 296 281 267 260 269 272 268 263 265 264 263 264 259 255 256 253 248 246 245 242 239 241 245 243
189 189 190 195 198 201 209 216 221 225 226 232 239 244 250 257 262 258 252 255 263 271 279 284 288 292 293 295 297 299 299 299 299 297 293 292 295 296 294 293 296 299 303 306 308 311 309 310 316 321 327 331 332 335 335 334 334 327 322 319 313 309 303 291 282 275 275 273 268 266 264 260 260 259 255 252 251 249 246 244 243 239 238 242 243
185 188 189 194 199 199 207 217 221 224 226 231 240 248 255 262 265 258 253 262 272 274 276 276 279 282 283 290 297 299 300 299 298 298 297 296 298 297 295 293 294 296 300 304 306 307 305 306 311 317 324 325 326 331 334 333 335 330 323 320 314 309 309 304 293 282 275 274 270 265 263 261 259 259 257 253 251 250 246 242 243 242 239 239 239
181 183 186 190 194 199 206 215 221 225 231 235 241 250 257 264 273 277 277 284 285 281 277 275 281 281 275 284 299 301 299 296 294 293 294 296 299 302 303 300 297 297 299 301 301 301 299 299 305 312 316 316 318 322 326 332 333 327 322 321 316 310 308 307 301 291 279 273 271 266 263 262 260 259 258 255 250 247 245 240 238 237 236 235 236
173 174 181 187 190 197 206 213 219 224 231 239 247 258 269 281 292 292 290 293 295 292 291 293 299 295 285 288 300 302 300 296 293 293 295 298 302 305 307 305 302 299 299 298 297 296 294 293 299 307 307 307 311 313 317 327 327 320 317 317 315 311 308 308 308 302 291 279 273 271 266 263 261 258 255 255 252 246 244 242 239 235 233 234 235
168 169 179 190 190 195 204 210 219 225 228 239 251 262 276 287 288 289 300 313 314 308 307 307 304 299 296 296 300 302 299 295 293 294 295 297 300 302 302 301 298 296 298 299 297 294 290 290 295 299 298 299 304 307 310 317 319 312 311 314 313 311 309 309 310 308 301 288 276 271 267 262 259 257 254 252 252 250 245 243 243 240 237 238 238
169 171 181 192 187 190 201 206 214 224 226 234 246 254 265 275 282 296 310 315 310 305 303 302 302 305 306 305 305 303 298 295 292 287 285 289 296 300 300 298 297 295 296 297 295 293 290 289 291 293 291 292 299 305 308 311 314 310 306 308 310 310 310 312 312 309 305 296 282 272 268 264 260 258 255 250 249 250 247 241 241 241 240 240 239
168 177 186 187 179 184 199 205 210 218 221 230 240 245 255 266 275 285 292 293 294 294 297 302 306 307 306 305 304 298 295 296 290 280 280 291 302 305 303 300 297 294 294 295 294 293 292 288 287 288 285 284 295 305 307 310 314 311 307 307 307 308 310 311 311 308 303 296 287 279 274 269 262 258 256 251 246 246 243 237 239 241 240 238 237
179 188 188 188 184 188 198 203 208 213 217 227 235 238 246 256 265 272 277 280 282 286 293 299 302 302 302 301 299 295 296 297 290 285 288 297 304 307 306 303 298 294 294 295 295 295 296 294 291 292 290 289 297 305 307 309 314 311 308 308 306 305 308 309 308 306 300 293 288 283 276 269 261 255 252 246 240 238 237 235 237 241 240 239 239
184 189 188 192 193 194 199 202 205 208 213 222 228 234 242 249 258 265 271 274 276 283 289 292 294 297 299 300 299 299 299 295 289 293 297 297 300 306 308 305 300 295 294 295 297 300 301 301 297 296 296 295 300 304 303 307 314 312 310 311 308 306 307 305 303 302 298 293 291 286 277 270 263 255 250 246 240 236 233 230 232 236 236 238 245
183 189 190 193 194 196 201 202 203 206 212 220 225 231 239 245 254 262 267 270 273 279 283 285 289 294 295 297 298 298 299 295 293 296 295 292 297 304 307 306 301 296 293 294 298 300 301 302 300 298 299 299 299 301 304 309 314 315 313 313 312 311 308 303 301 300 296 291 291 288 280 275 271 261 254 251 245 237 231 228 228 228 224 223 239
183 190 191 194 196 198 202 202 204 207 211 218 224 231 237 242 251 260 263 266 270 277 280 281 285 289 289 291 293 295 296 294 292 292 290 288 295 302 306 306 301 297 294 294 297 299 301 304 302 298 299 300 297 300 308 312 314 317 319 318 318 320 317 308 301 299 296 291 289 289 285 281 277 268 259 254 249 242 233 228 227 225 220 218 223
185 191 192 197 198 200 202 203 206 208 211 218 224 228 235 241 248 256 261 264 268 273 276 278 281 288 290 289 290 292 293 293 296 295 288 285 295 304 306 306 302 297 294 295 298 300 303 306 305 299 299 300 298 301 309 312 314 319 322 324 325 325 324 318 309 302 296 289 283 284 286 284 278 271 264 257 253 249 239 228 225 224 222 223 224
188 192 194 200 200 201 204 205 208 212 214 219 224 227 233 239 245 254 261 264 267 270 274 277 283 288 288 284 286 290 293 301 311 310 299 293 298 303 305 305 302 297 294 294 295 298 303 307 305 300 299 299 299 302 309 312 315 319 323 326 327 326 325 323 320 314 305 294 287 285 286 285 281 278 273 264 256 252 245 233 225 223 225 228 230
190 192 195 200 201 202 204 206 210 214 217 221 226 230 234 238 244 252 258 261 265 269 273 278 284 286 284 280 284 291 295 299 307 309 305 299 295 299 305 306 302 298 293 291 295 302 308 309 305 302 300 298 300 306 310 312 316 321 324 327 328 326 325 324 323 320 313 303 297 293 288 284 280 277 274 268 260 254 251 246 238 232 229 229 231
190 193 198 201 202 202 204 207 210 214 220 224 228 232 235 237 241 247 253 257 260 264 268 272 276 279 281 280 281 288 296 300 301 302 302 296 289 295 305 304 297 293 291 292 300 310 314 310 308 309 305 302 307 312 312 313 319 324 328 331 330 327 325 326 325 322 316 311 308 303 297 290 283 276 269 263 259 257 254 252 251 244 234 226 226
192 197 201 201 203 202 203 207 210 213 219 223 228 232 235 236 238 241 246 251 255 260 264 268 273 276 276 277 278 287 295 299 300 303 307 299 288 294 301 297 290 290 292 296 304 312 313 310 309 308 304 305 312 316 316 318 323 328 331 332 330 327 326 328 328 326 325 322 318 314 309 303 294 283 269 255 249 250 250 244 242 240 231 221 223
198 203 205 205 205 203 203 207 210 212 216 221 227 232 235 236 237 239 242 245 251 257 263 271 277 277 275 274 280 292 295 292 296 306 311 301 289 295 300 296 293 294 295 298 302 306 309 312 311 308 307 312 315 316 320 324 326 329 332 329 326 324 325 328 329 330 332 330 326 324 323 318 306 290 273 251 240 239 240 236 228 225 223 218 213
204 207 208 209 207 206 207 209 211 214 217 219 224 230 234 237 239 240 240 243 248 253 262 268 269 268 272 276 282 290 290 285 292 303 307 295 291 302 307 303 299 297 297 298 301 304 309 314 315 315 315 317 319 323 327 328 326 328 331 328 324 323 326 329 329 330 332 331 330 332 331 328 319 299 273 251 237 232 233 233 225 217 220 224 214
209 211 211 211 210 210 212 212 213 217 219 220 223 228 232 236 241 242 242 244 246 249 255 261 264 266 274 284 288 286 278 282 294 302 298 282 285 304 314 311 305 299 297 297 299 302 308 312 315 318 316 316 323 329 331 331 327 328 333 331 325 323 326 330 331 331 331 329 331 334 332 332 333 318 279 246 234 230 229 230 224 217 219 223 217
211 213 214 213 213 215 216 216 216 217 220 223 226 230 232 234 236 240 244 247 250 253 257 261 267 274 285 295 295 285 278 289 298 300 290 275 282 306 317 317 308 297 293 296 298 301 305 308 314 318 315 317 327 333 336 337 332 327 331 333 329 327 329 332 334 334 333 332 334 336 336 337 340 336 311 256 228 223 225 227 224 220 219 219 218
217 215 216 216 217 219 221 221 219 217 221 225 227 230 232 233 234 239 246 252 259 266 269 267 268 279 299 308 301 289 288 297 299 294 285 276 286 309 319 321 313 301 295 297 298 299 302 306 312 315 312 318 328 332 333 337 335 334 338 338 334 333 335 337 338 337 337 338 339 339 340 340 340 339 334 311 251 221 218 223 224 221 220 219 219
243 231 225 221 220 222 226 225 220 217 220 225 227 230 231 233 238 244 250 261 273 281 285 282 277 278 282 286 287 284 290 300 298 283 272 275 299 317 322 322 320 313 304 300 299 303 306 307 309 311 314 323 329 322 310 327 344 349 349 344 339 339 341 342 343 342 341 342 343 342 342 343 341 338 337 329 304 247 219 218 220 220 220 220 221
264 252 241 233 225 225 231 230 224 222 226 229 229 226 225 226 232 241 253 260 264 275 287 289 280 273 263 263 274 277 276 283 282 258 245 292 316 321 318 318 322 322 312 306 306 308 309 308 309 312 319 330 335 316 305 326 348 348 343 343 344 346 348 347 347 346 344 343 345 344 342 344 344 341 338 333 316 274 236 222 218 217 218 219 220
270 264 259 251 237 233 237 235 231 230 230 232 229 223 219 220 220 227 242 247 242 248 258 259 261 264 257 259 270 264 238 237 239 196 191 313 317 317 315 319 329 331 321 317 316 313 310 310 314 318 326 334 336 326 325 347 360 353 351 355 354 352 355 355 352 351 348 345 346 344 342 344 346 345 347 350 340 286 241 228 221 217 216 217 218
267 271 270 260 249 248 248 247 249 247 242 242 236 218 208 212 221 233 245 250 245 244 249 250 253 253 246 249 259 250 221 237 229 184 237 313 322 324 322 326 335 335 329 326 323 319 316 317 322 330 334 332 329 337 353 11 13 7 7 9 5 2 3 2 359 356 353 349 347 344 343 346 349 353 360 6 5 345 254 226 220 218 215 213 212
261 269 273 266 259 259 258 261 268 273 275 279 271 236 220 222 226 238 246 247 248 254 251 245 242 243 241 249 261 246 194 189 194 199 300 320 331 333 329 331 336 337 338 336 330 326 326 329 335 343 346 341 336 347 359 11 11 9 9 10 9 8 6 6 7 5 359 353 348 346 346 350 355 0 6 10 11 9 352 232 216 216 217 213 207
271 266 269 271 270 269 269 271 276 278 282 291 301 293 270 246 231 239 249 246 239 243 242 234 231 234 231 235 251 241 177 162 164 328 325 327 333 332 329 330 334 339 343 338 331 332 338 339 339 345 356 12 20 1 357 6 6 5 7 9 10 11 11 12 14 11 3 356 352 351 353 356 359 3 6 10 13 15 13 355 229 216 215 211 201
280 269 268 270 271 267 260 258 258 255 254 256 263 273 272 253 231 238 249 243 233 234 234 227 228 233 217 201 217 207 142 132 4 338 333 329 330 328 325 327 335 342 344 338 333 336 340 338 340 354 7 22 27 12 6 9 4 2 8 10 9 11 13 13 12 9 2 358 357 356 357 360 2 3 6 10 14 15 15 14 10 231 208 203 199
292 281 277 275 277 272 247 231 234 242 243 237 230 234 246 255 236 213 216 219 220 224 228 226 232 232 179 144 157 159 132 97 334 335 333 332 332 327 320 330 346 350 348 341 335 333 333 337 357 15 16 19 23 14 9 9 6 3 6 8 9 9 8 8 8 7 3 2 3 2 1 2 4 5 5 7 14 17 15 16 24 33 53 152 173
290 286 285 284 291 304 282 248 253 253 242 219 202 205 210 243 345 255 222 229 224 218 217 207 196 154 142 138 130 114 101 34 349 345 340 342 346 337 333 359 7 7 3 353 340 334 344 7 23 23 17 19 21 14 8 8 6 2 1 3 6 7 4 4 6 5 3 4 7 7 6 5 5 7 6 5 12 19 16 16 25 30 35 51 62
284 287 292 295 303 317 319 285 269 261 245 215 205 203 167 111 332 289 276 267 260 259 256 108 73 89 116 123 106 77 53 21 7 4 2 2 359 358 29 36 28 29 23 9 1 8 20 28 31 24 18 19 18 13 10 9 5 1 359 359 2 3 1 2 5 4 3 7 9 9 9 9 7 9 10 9 11 17 17 18 23 24 27 43 54
283 290 297 305 314 322 321 308 299 291 267 224 235 214 173 167 245 257 256 254 250 248 234 86 86 89 96 99 84 48 34 27 20 16 17 11 0 355 359 8 29 41 30 17 22 31 27 26 29 25 20 19 17 13 12 9 4 1 359 358 358 359 358 359 4 7 7 9 11 10 11 12 11 12 13 12 12 15 17 18 19 20 24 37 47
278 288 296 301 307 311 308 301 301 313 57 109 186 194 198 217 231 228 221 223 219 182 133 107 97 89 78 70 60 47 41 42 37 33 30 18 358 346 332 313 307 39 30 27 39 43 33 29 29 25 21 20 17 16 15 10 5 2 1 359 357 358 358 358 2 7 8 9 11 11 11 13 14 13 14 14 12 13 16 16 14 17 23 31 39
274 281 288 293 297 304 314 320 328 348 26 70 123 161 200 226 233 226 216 210 194 165 149 130 105 87 76 70 64 57 59 63 58 52 44 22 7 7 9 7 27 63 49 44 49 47 38 35 31 27 28 26 22 22 20 13 8 5 2 0 359 0 2 2 2 4 7 9 11 11 11 13 15 15 16 17 14 12 12 12 12 17 23 28 34
273 281 300 319 332 342 350 356 3 6 15 50 89 111 202 231 232 230 227 227 206 161 143 133 114 95 83 74 66 63 67 68 63 60 51 32 26 34 39 38 43 53 49 44 45 43 40 39 36 33 33 30 25 23 19 14 11 9 5 4 4 4 5 5 6 7 7 6 8 10 11 11 13 14 17 19 17 12 10 10 13 19 23 25 31
287 303 338 357 355 350 351 5 17 16 20 45 72 77 247 232 227 229 234 237 219 164 143 144 150 133 106 74 47 44 41 40 58 64 57 42 35 41 47 44 40 44 45 40 39 41 41 39 35 32 33 31 25 18 14 13 13 11 9 9 8 8 8 8 10 11 9 5 5 9 10 10 10 11 14 18 17 13 10 11 15 19 22 24 27
292 301 312 328 336 333 332 358 21 20 11 16 53 99 167 152 127 168 204 195 168 150 144 149 160 154 132 86 20 335 303 288 272 280 59 49 39 37 45 48 43 43 44 35 28 34 44 44 38 31 29 30 26 18 14 13 12 11 11 11 8 8 8 10 11 12 11 7 7 9 10 9 9 9 10 14 17 15 13 14 16 18 19 21 21
271 253 266 310 337 336 342 14 29 26 18 44 106 117 120 115 110 115 124 127 131 135 132 120 118 120 101 17 298 258 305 319 298 289 70 61 51 42 42 45 46 45 45 37 25 26 37 42 38 33 31 29 26 23 18 14 12 12 13 12 10 8 8 8 9 10 8 5 6 9 9 8 9 9 9 11 14 17 17 17 18 18 17 18 20
284 191 260 353 1 3 27 48 59 67 77 98 118 123 122 121 126 133 136 135 137 138 125 111 104 91 31 339 326 77 24 7 27 84 78 64 65 63 47 29 25 32 40 43 25 19 30 39 36 34 33 29 27 27 23 18 16 15 14 13 11 9 8 7 7 8 6 3 5 8 8 7 7 9 10 10 12 16 18 18 19 20 20 19 21
18 89 86 56 54 59 65 76 94 107 107 107 112 121 131 139 136 136 141 151 160 154 132 119 109 76 30 151 129 83 52 34 59 88 85 75 86 87 68 22 14 16 22 41 32 14 24 37 36 34 34 30 27 29 27 23 22 19 17 16 11 8 8 8 6 7 5 3 4 6 6 7 8 7 8 9 10 14 17 18 19 22 22 20 21
133 124 117 91 82 90 95 99 105 114 120 121 118 123 136 148 148 153 167 183 184 166 140 124 115 98 93 129 132 87 62 57 66 73 71 75 82 83 78 55 40 28 27 40 34 15 20 31 32 34 35 30 29 32 30 27 26 23 20 18 13 8 7 4 3 6 5 2 3 6 6 7 9 8 7 9 10 12 15 16 17 19 20 19 19
148 135 126 109 95 96 103 109 113 113 116 124 131 138 150 161 168 178 194 206 177 155 148 141 135 118 101 112 124 103 68 59 61 56 59 72 80 85 92 81 60 51 48 46 32 22 28 32 31 34 35 32 34 37 35 32 31 28 25 21 15 9 6 3 2 4 2 358 1 5 5 6 9 10 9 9 10 11 14 16 17 18 17 17 18
141 133 132 124 112 110 113 117 118 111 110 121 130 140 164 180 181 193 236 294 338 151 152 149 147 143 128 122 128 125 103 117 168 129 113 118 115 120 150 160 133 121 96 74 49 30 30 38 43 43 41 38 39 42 44 42 37 33 31 28 20 12 9 10 10 6 358 353 357 2 3 5 8 9 10 12 12 13 14 14 15 17 16 14 15
167 149 146 137 130 136 143 141 129 119 125 149 152 149 201 223 236 298 296 290 285 257 190 163 161 163 158 153 155 151 147 172 185 179 176 173 169 185 204 201 192 184 151 96 65 41 34 48 58 55 48 46 46 48 50 49 40 31 31 33 29 21 15 16 21 16 3 359 3 4 2 4 8 8 9 12 14 15 15 14 14 17 17 15 12
152 157 167 159 149 154 167 162 146 137 149 183 183 193 255 246 232 235 249 257 260 255 239 216 203 189 169 160 159 155 160 184 187 182 190 197 192 197 205 201 175 133 101 73 60 57 55 59 65 65 61 59 58 55 54 52 42 29 27 30 33 29 22 23 32 27 13 8 13 9 3 4 9 9 7 10 14 16 16 15 15 17 18 17 13
162 185 179 163 154 147 145 147 145 148 198 230 228 249 262 254 244 244 248 247 257 266 260 242 229 213 188 174 165 163 183 199 193 179 177 190 203 202 198 185 150 121 105 87 72 72 72 73 77 80 77 72 69 65 60 54 42 31 27 27 28 30 29 32 38 35 23 19 23 19 8 4 10 11 9 10 13 16 15 14 14 18 19 19 16
170 182 182 189 205 205 198 198 220 243 244 235 230 239 251 254 254 257 257 251 257 265 256 236 225 217 208 200 192 188 195 199 191 175 169 172 187 196 168 104 106 119 123 125 117 96 88 88 86 85 90 90 85 79 68 51 34 27 27 26 25 28 32 37 40 39 34 31 32 28 18 9 9 13 13 12 13 14 14 12 11 16 20 21 18
211 209 207 210 218 220 211 196 192 204 218 221 214 209 215 232 249 257 260 257 250 247 242 232 219 213 215 209 193 183 183 180 171 166 163 161 169 172 143 112 126 144 137 133 131 122 114 108 97 88 89 93 96 96 76 40 24 23 25 24 24 29 36 42 46 44 40 38 38 35 25 14 11 13 14 14 13 12 11 9 10 15 21 23 21
258 261 244 227 225 224 213 202 203 212 224 230 225 213 214 231 248 253 257 255 240 233 239 240 227 215 213 207 191 179 177 176 173 169 157 150 151 152 146 147 158 155 139 136 139 134 124 114 105 101 98 96 105 111 83 28 18 21 23 21 23 30 40 53 60 54 44 41 42 37 26 17 16 17 16 14 13 10 8 8 9 14 19 21 22
289 292 275 259 260 268 267 258 258 257 256 264 273 271 266 268 263 253 252 254 248 241 240 236 226 219 213 201 191 183 175 172 172 164 155 152 151 150 151 157 162 158 153 151 147 139 133 124 113 111 110 107 113 113 68 25 23 30 27 22 23 27 38 55 64 58 49 45 43 38 27 20 21 22 19 15 13 11 9 8 9 13 17 18 19